Theta_e
312 311 309 309 309 308 307 305 302 297 297 300 299 302 300 302 306 301 302 309 311 311 310 311 309 309 308 308 310 311 312 311 310 309 310 310 311 312
311 309 308 307 307 306 305 303 301 297 292 295 296 297 299 301 302 299 301 304 307 309 310 310 309 308 308 309 310 310 310 310 310 309 309 309 309 311
308 306 305 302 299 298 300 297 297 294 290 292 294 296 296 295 296 297 298 298 299 307 309 309 307 306 307 306 307 305 305 305 305 305 306 306 307 308
304 301 299 300 296 294 295 291 293 292 291 289 291 293 294 294 294 294 296 298 296 303 307 308 306 305 304 304 304 305 302 303 303 303 303 304 305 306
301 299 297 294 292 292 292 291 292 295 291 289 288 290 291 292 292 292 293 293 297 302 303 306 305 304 304 302 302 303 302 301 302 302 302 303 303 303
298 296 294 292 291 292 293 291 292 291 290 288 287 288 289 291 290 289 291 293 293 297 300 303 303 303 302 302 300 301 301 301 300 300 301 300 301 301
295 294 292 295 300 299 295 293 292 290 289 286 285 286 288 290 289 288 289 291 293 292 293 295 296 296 297 299 299 300 300 300 299 299 299 299 299 300
294 292 289 291 292 297 300 302 300 289 286 286 286 286 286 290 288 290 289 289 288 295 294 294 293 294 295 296 299 299 299 298 298 299 298 299 298 298
288 287 287 289 289 289 294 297 297 299 298 291 288 288 288 291 288 287 290 289 289 293 291 291 295 292 294 296 298 298 298 297 297 297 298 298 298 297
288 286 284 284 288 289 289 289 289 290 290 293 290 290 290 291 290 289 289 289 291 293 290 288 293 291 294 295 296 297 296 296 297 297 298 298 297 297
286 286 286 284 290 291 288 287 287 288 295 299 298 296 294 294 295 292 289 288 289 289 289 286 289 290 293 290 293 295 296 296 297 297 298 298 297 297
285 285 291 287 290 290 284 285 284 286 288 289 289 290 291 292 296 293 290 288 288 287 290 287 286 291 288 292 292 293 294 296 296 296 297 297 297 297
286 286 286 290 289 290 291 285 286 289 290 288 287 288 289 290 291 292 292 288 288 288 293 287 288 290 290 289 291 292 293 293 294 295 295 297 297 297
286 286 287 291 290 291 290 290 292 291 287 287 288 288 288 289 290 291 291 290 292 290 291 289 287 290 289 288 287 290 292 293 294 293 294 296 297 296
287 290 292 291 292 291 293 292 291 287 286 287 287 287 288 289 290 291 291 292 291 291 293 292 290 292 291 289 287 288 289 290 293 293 294 295 295 295
291 291 293 293 293 292 290 289 288 289 286 285 285 288 289 289 289 290 289 289 289 289 292 292 290 293 291 291 290 288 289 288 291 293 293 296 295 295
290 289 287 286 286 286 286 287 287 287 286 286 287 286 287 288 289 290 289 288 287 287 288 289 290 294 293 291 288 289 288 289 291 291 292 293 293 294
288 286 285 285 285 285 284 285 285 287 286 287 286 286 286 287 287 288 288 287 286 286 287 287 289 290 290 291 293 288 288 288 290 290 292 292 290 293
286 285 285 285 285 285 284 284 284 284 285 286 285 285 286 287 287 287 286 286 286 286 286 288 288 288 284 283 289 293 287 288 288 288 291 292 290 292
285 285 284 285 285 284 284 283 283 284 284 284 284 284 284 285 286 286 285 285 285 286 285 287 287 287 285 284 284 288 292 290 291 290 290 292 293 293
285 285 285 285 284 284 283 283 283 282 282 282 282 282 283 284 285 285 284 285 285 285 284 285 287 287 290 290 286 287 290 293 295 293 291 290 290 290
285 285 285 284 284 283 283 282 281 280 280 281 281 281 282 284 285 284 284 284 284 284 285 286 288 288 287 286 285 286 288 290 295 296 296 294 289 285
285 284 284 284 283 283 282 280 279 278 279 279 279 280 281 283 285 284 283 284 285 284 285 284 286 286 285 286 286 286 287 288 291 292 293 296 296 296
Wind_Speed
6 7 5 4 5 5 4 3 2 4 3 4 5 8 9 7 15 10 11 21 21 20 21 14 18 24 24 24 23 21 20 16 13 13 15 16 17 18
6 8 7 5 7 6 5 4 5 3 2 3 5 5 9 8 13 12 12 21 19 19 22 19 21 24 25 24 22 15 16 15 14 14 15 17 18 20
8 10 10 8 6 5 5 5 6 4 3 4 3 6 6 9 10 11 12 11 11 19 21 17 20 23 24 26 17 15 16 16 15 14 13 15 17 16
9 10 8 7 7 6 5 7 5 4 3 6 4 7 6 8 9 9 9 9 10 18 23 12 17 18 22 25 22 13 16 14 15 15 13 16 20 17
9 8 7 7 8 5 5 5 4 4 3 3 4 3 3 3 6 7 8 9 8 21 20 12 15 17 20 22 23 22 18 17 16 12 12 18 18 16
10 9 8 8 7 6 5 5 4 4 3 3 3 3 3 5 3 5 10 8 10 10 11 11 15 19 20 24 24 22 19 16 15 17 16 18 17 16
10 10 9 13 15 11 4 6 4 3 3 3 4 3 5 9 8 4 5 9 11 5 4 6 8 9 10 18 18 22 20 15 20 15 17 16 15 16
8 6 7 13 11 16 17 17 9 3 4 3 4 5 6 6 4 8 6 8 10 9 11 11 4 7 9 12 25 22 17 23 19 20 19 17 17 16
8 7 8 8 10 7 11 13 10 8 4 3 4 6 4 8 6 6 10 7 9 11 5 10 9 6 12 11 19 21 23 22 22 22 20 20 17 15
7 6 7 7 8 8 7 8 8 7 7 7 5 6 4 7 7 4 6 8 8 8 3 8 10 9 12 9 14 21 23 22 22 23 21 19 18 17
6 6 7 6 9 11 7 7 8 8 11 13 12 14 13 15 15 7 11 11 11 10 3 2 5 12 9 4 9 21 22 19 23 22 22 21 19 17
4 6 8 6 7 8 7 6 7 7 7 7 7 7 8 12 18 11 9 9 10 9 5 7 4 11 10 3 12 11 9 20 22 21 19 22 18 7
4 3 2 6 8 10 8 4 5 6 8 6 6 6 8 10 10 12 12 5 11 9 9 3 7 11 7 11 9 10 12 12 11 11 19 16 17 11
4 2 2 6 8 9 6 9 10 8 5 5 7 9 9 10 11 11 12 8 12 10 8 2 4 12 11 8 9 10 11 11 9 12 10 11 11 13
2 3 8 10 9 7 9 11 9 5 5 8 8 8 8 9 11 10 9 12 11 11 10 4 9 12 11 8 8 11 15 13 10 11 10 9 9 9
7 6 6 9 11 7 7 6 7 6 5 5 5 8 8 10 10 10 10 12 10 11 14 14 9 13 11 10 9 9 11 9 13 11 11 7 9 8
5 6 6 5 6 5 5 5 6 6 6 6 8 9 10 10 10 9 10 11 10 13 12 13 10 13 12 8 5 9 11 9 11 12 11 8 9 10
6 5 5 5 5 4 5 5 6 9 6 7 7 8 10 10 11 10 10 11 12 12 13 13 13 12 11 2 8 9 9 10 11 12 9 6 10 12
5 5 5 5 4 5 5 5 6 6 6 6 7 8 9 9 12 10 12 11 13 12 13 13 12 14 14 13 5 10 12 11 9 8 9 6 8 10
5 5 4 4 4 5 5 5 5 7 7 7 8 8 9 9 10 11 12 12 13 12 13 13 13 14 12 11 8 8 18 10 9 11 9 4 3 13
5 5 4 5 5 5 5 6 7 7 6 7 8 8 9 9 10 11 11 14 14 13 14 14 13 13 10 9 8 9 11 21 15 13 11 5 5 7
5 5 5 5 5 6 6 6 6 7 7 7 8 7 8 8 9 11 11 11 11 12 11 11 12 12 9 10 12 12 9 8 12 19 23 18 6 6
5 5 5 5 5 6 6 6 5 5 6 6 7 7 8 9 8 9 10 10 11 12 14 13 12 11 10 11 11 9 13 9 7 9 11 20 16 14
Wind_Direction
80 72 69 49 50 49 45 56 137 358 321 354 355 342 334 355 5 360 351 353 345 355 7 3 352 344 337 331 328 323 315 302 294 301 314 317 315 306
75 64 56 43 45 38 35 35 48 74 1 354 334 313 346 11 1 5 353 347 339 346 352 351 347 340 337 334 340 352 353 343 327 315 309 314 315 307
67 66 64 54 50 36 37 38 38 42 9 308 297 320 6 10 0 356 349 342 337 328 342 342 346 342 343 352 350 2 350 340 334 328 330 327 319 312
77 70 61 56 47 36 43 31 36 9 44 331 316 345 3 1 341 343 337 335 324 326 328 339 335 340 336 339 335 328 350 332 323 308 307 320 325 315
86 78 71 59 47 31 29 30 17 10 27 10 308 316 307 314 325 328 330 320 318 325 322 322 323 325 330 330 326 323 344 331 327 327 315 319 316 311
85 72 61 57 59 26 22 3 9 13 6 346 305 296 290 310 322 312 330 334 322 322 309 300 313 320 322 336 336 335 333 333 342 325 312 316 308 304
85 76 56 50 44 32 20 338 353 35 336 331 313 320 320 334 336 315 310 316 326 296 289 300 319 312 319 335 337 335 339 341 328 326 322 315 308 302
85 67 60 42 29 25 17 22 47 64 348 346 303 318 302 328 311 328 319 339 333 324 332 323 311 314 325 327 333 334 340 336 332 327 324 317 313 301
76 63 55 42 36 24 14 22 24 356 317 277 296 326 306 339 326 314 334 325 308 312 331 317 331 334 323 319 327 325 336 329 327 324 320 319 313 303
88 84 74 44 32 27 18 16 359 338 337 342 333 296 319 340 337 283 289 303 301 314 352 317 333 335 321 322 328 329 328 325 323 325 320 317 314 306
89 80 72 52 20 24 28 14 2 352 346 347 1 9 6 350 341 341 347 342 334 335 23 278 326 328 331 328 329 327 329 327 327 323 319 314 308 305
74 69 67 51 5 29 33 8 14 334 340 350 353 353 2 346 345 352 342 339 338 334 345 345 333 347 328 328 328 327 327 333 330 323 321 322 315 309
97 73 40 27 359 350 16 5 335 317 347 357 347 1 357 351 344 343 340 331 342 324 336 4 323 343 325 318 325 318 334 330 326 327 327 324 327 321
99 67 31 25 356 335 356 333 357 8 5 2 10 9 359 348 337 335 328 337 333 308 308 303 284 342 330 319 333 322 329 330 326 332 325 326 323 336
66 7 7 359 17 32 58 38 16 9 16 17 13 5 352 336 324 336 338 344 327 322 342 296 324 333 334 328 316 322 328 334 337 330 335 334 349 341
23 17 42 60 55 45 46 34 23 14 30 8 4 354 346 347 347 340 346 344 340 346 343 350 343 339 333 329 316 317 329 334 331 340 338 336 351 354
52 50 41 38 35 30 21 32 20 15 20 11 12 360 353 349 346 341 350 344 347 345 346 347 352 340 337 332 320 332 333 338 347 340 336 357 1 2
59 63 47 43 37 34 23 29 24 22 16 13 9 0 352 344 340 347 354 348 349 347 346 344 349 346 354 308 17 338 344 341 343 343 346 1 11 15
70 59 54 47 31 32 35 46 32 7 1 8 6 357 349 339 339 352 352 346 351 351 346 343 351 357 350 355 317 345 340 336 337 344 345 4 19 12
66 66 62 50 41 39 36 45 29 15 11 3 360 352 345 339 338 354 351 344 351 349 347 348 354 2 346 342 326 318 336 339 348 358 6 337 14 18
66 57 62 55 47 43 47 41 34 18 360 356 355 346 338 342 337 350 348 343 350 352 348 350 344 349 333 328 343 343 345 352 2 9 6 7 356 11
69 72 57 60 54 47 49 39 25 12 359 353 348 338 335 340 336 347 347 345 355 351 344 340 341 352 353 351 347 346 351 347 359 22 35 43 31 28
62 69 56 60 54 54 55 38 23 2 348 338 342 333 335 341 332 344 343 345 353 351 351 344 352 354 353 352 349 349 353 359 357 20 29 15 25 39